• En Argentina
  • Lista de países
  • Para 7 días
  • Temperatura del agua
  • El tiempo en el mapa
  • Informadores
  • user-avatar
    Iniciar sesión

    Tiempo cada hora Paraná

    Hoy, 26 Enero, Domingo

    Tiempo Temperatura Precipitaciones Viento Presión Humedad
    00:00 +27°C° 0 mm 1 mps 750 mmHg 28%
    01:00 +27°C° 0 mm 2 mps 750 mmHg 29%
    02:00 +26°C° 0 mm 2 mps 750 mmHg 30%
    03:00 +25°C° 0 mm 2 mps 750 mmHg 29%
    04:00 +25°C° 0 mm 2 mps 750 mmHg 29%
    05:00 +24°C° 0 mm 2 mps 750 mmHg 29%
    06:00 +27°C° 0 mm 2 mps 751 mmHg 28%
    07:00 +29°C° 0 mm 2 mps 751 mmHg 27%
    08:00 +31°C° 0 mm 2 mps 752 mmHg 27%
    09:00 +35°C° 0 mm 2 mps 752 mmHg 23%
    10:00 +38°C° 0 mm 3 mps 751 mmHg 20%
    11:00 +40°C° 0 mm 3 mps 751 mmHg 16%
    12:00 +42°C° 0 mm 3 mps 751 mmHg 15%
    13:00 +43°C° 0 mm 4 mps 750 mmHg 14%
    14:00 +44°C° 0 mm 4 mps 750 mmHg 13%
    15:00 +43°C° 0 mm 4 mps 749 mmHg 13%
    16:00 +43°C° 0 mm 3 mps 749 mmHg 14%
    17:00 +43°C° 0 mm 3 mps 748 mmHg 14%
    18:00 +39°C° 0 mm 3 mps 749 mmHg 16%
    19:00 +37°C° 0 mm 3 mps 749 mmHg 18%
    20:00 +34°C° 0 mm 2 mps 749 mmHg 21%
    21:00 +32°C° 0 mm 2 mps 750 mmHg 23%
    22:00 +31°C° 0 mm 2 mps 750 mmHg 25%
    23:00 +30°C° 0 mm 1 mps 751 mmHg 27%

    Mañana, 27 Enero, Lunes

    Tiempo Temperatura Precipitaciones Viento Presión Humedad
    00:00 +30°C° 0 mm 2 mps 751 mmHg 30%
    01:00 +29°C° 0 mm 2 mps 751 mmHg 33%
    02:00 +29°C° 0 mm 3 mps 751 mmHg 36%
    03:00 +28°C° 0 mm 4 mps 752 mmHg 36%
    04:00 +26°C° 0 mm 4 mps 752 mmHg 37%
    05:00 +25°C° 0 mm 5 mps 753 mmHg 38%
    06:00 +26°C° 0 mm 6 mps 753 mmHg 38%
    07:00 +28°C° 0 mm 6 mps 754 mmHg 39%
    08:00 +29°C° 0 mm 6 mps 754 mmHg 39%
    09:00 +32°C° 0 mm 6 mps 754 mmHg 34%
    10:00 +34°C° 0 mm 6 mps 754 mmHg 29%
    11:00 +38°C° 0 mm 6 mps 754 mmHg 24%
    12:00 +39°C° 0 mm 5 mps 754 mmHg 22%
    13:00 +40°C° 0 mm 5 mps 753 mmHg 20%
    14:00 +41°C° 0 mm 5 mps 753 mmHg 18%
    15:00 +41°C° 0 mm 5 mps 753 mmHg 17%
    16:00 +40°C° 0 mm 5 mps 752 mmHg 17%
    17:00 +40°C° 0 mm 6 mps 752 mmHg 16%
    18:00 +36°C° 0 mm 6 mps 752 mmHg 20%
    19:00 +34°C° 0 mm 6 mps 752 mmHg 23%
    20:00 +32°C° 0 mm 6 mps 752 mmHg 27%
    21:00 +29°C° 0 mm 5 mps 753 mmHg 29%
    22:00 +28°C° 0 mm 5 mps 753 mmHg 32%
    23:00 +26°C° 0 mm 5 mps 754 mmHg 34%

    Pasado mañana, 28 Enero, Martes

    Tiempo Temperatura Precipitaciones Viento Presión Humedad
    00:00 +25°C° 0 mm 5 mps 753 mmHg 39%
    01:00 +23°C° 0 mm 5 mps 753 mmHg 44%
    02:00 +22°C° 0 mm 5 mps 753 mmHg 49%
    03:00 +22°C° 0 mm 4 mps 753 mmHg 52%
    04:00 +21°C° 0 mm 4 mps 753 mmHg 54%
    05:00 +20°C° 0 mm 4 mps 753 mmHg 57%
    06:00 +22°C° 0 mm 4 mps 753 mmHg 56%
    07:00 +23°C° 0 mm 5 mps 753 mmHg 54%
    08:00 +26°C° 0 mm 5 mps 753 mmHg 53%
    09:00 +29°C° 0 mm 5 mps 753 mmHg 44%
    10:00 +33°C° 0 mm 5 mps 752 mmHg 35%
    11:00 +36°C° 0 mm 5 mps 752 mmHg 26%
    12:00 +37°C° 0 mm 4 mps 751 mmHg 25%
    13:00 +40°C° 0 mm 4 mps 751 mmHg 23%
    14:00 +41°C° 0 mm 4 mps 750 mmHg 22%
    15:00 +37°C° 0.1 mm 5 mps 749 mmHg 32%
    16:00 +34°C° 0.1 mm 7 mps 749 mmHg 41%
    17:00 +31°C° 0.1 mm 8 mps 748 mmHg 51%
    18:00 +28°C° 0.3 mm 6 mps 748 mmHg 57%
    19:00 +27°C° 0.3 mm 4 mps 748 mmHg 64%
    20:00 +26°C° 0.3 mm 2 mps 748 mmHg 70%
    21:00 +26°C° 0 mm 2 mps 748 mmHg 68%
    22:00 +26°C° 0 mm 3 mps 748 mmHg 65%
    23:00 +26°C° 0 mm 4 mps 748 mmHg 63%

    29 Enero, Miércoles

    Tiempo Temperatura Precipitaciones Viento Presión Humedad
    00:00 +25°C° 0.6 mm 4 mps 748 mmHg 70%
    01:00 +23°C° 0.6 mm 4 mps 748 mmHg 77%
    02:00 +22°C° 0.6 mm 3 mps 747 mmHg 84%
    03:00 +22°C° 0.4 mm 3 mps 748 mmHg 85%
    04:00 +23°C° 0.4 mm 2 mps 748 mmHg 86%
    05:00 +23°C° 0.4 mm 1 mps 749 mmHg 87%
    06:00 +23°C° 0.8 mm 1 mps 749 mmHg 89%
    07:00 +23°C° 0.8 mm 2 mps 750 mmHg 90%
    08:00 +23°C° 0.8 mm 2 mps 750 mmHg 92%
    09:00 +23°C° 0.8 mm 2 mps 751 mmHg 88%
    10:00 +24°C° 0.8 mm 1 mps 751 mmHg 85%
    11:00 +25°C° 0.8 mm 1 mps 751 mmHg 81%
    12:00 +26°C° 0 mm 2 mps 751 mmHg 72%
    13:00 +28°C° 0 mm 3 mps 751 mmHg 64%
    14:00 +29°C° 0 mm 4 mps 751 mmHg 56%
    15:00 +32°C° 0 mm 4 mps 750 mmHg 48%
    16:00 +33°C° 0 mm 4 mps 749 mmHg 41%
    17:00 +34°C° 0 mm 4 mps 749 mmHg 34%
    18:00 +32°C° 0 mm 4 mps 749 mmHg 37%
    19:00 +29°C° 0 mm 3 mps 750 mmHg 39%
    20:00 +27°C° 0 mm 2 mps 750 mmHg 42%
    21:00 +26°C° 0 mm 3 mps 751 mmHg 40%
    22:00 +25°C° 0 mm 3 mps 752 mmHg 37%
    23:00 +23°C° 0 mm 4 mps 753 mmHg 35%

    30 Enero, Jueves

    Tiempo Temperatura Precipitaciones Viento Presión Humedad
    00:00 +22°C° 0 mm 4 mps 753 mmHg 44%
    01:00 +21°C° 0 mm 5 mps 753 mmHg 54%
    02:00 +20°C° 0 mm 5 mps 753 mmHg 63%
    03:00 +19°C° 0 mm 5 mps 754 mmHg 67%
    04:00 +19°C° 0 mm 5 mps 754 mmHg 71%
    05:00 +18°C° 0 mm 4 mps 754 mmHg 76%
    06:00 +19°C° 0 mm 5 mps 755 mmHg 72%
    07:00 +20°C° 0 mm 5 mps 755 mmHg 68%
    08:00 +21°C° 0 mm 5 mps 755 mmHg 64%
    09:00 +23°C° 0 mm 5 mps 756 mmHg 53%
    10:00 +26°C° 0 mm 4 mps 756 mmHg 43%
    11:00 +28°C° 0 mm 4 mps 756 mmHg 33%
    12:00 +29°C° 0 mm 4 mps 755 mmHg 29%
    13:00 +32°C° 0 mm 4 mps 754 mmHg 26%
    14:00 +33°C° 0 mm 3 mps 754 mmHg 23%
    15:00 +33°C° 0 mm 3 mps 753 mmHg 22%
    16:00 +33°C° 0 mm 3 mps 753 mmHg 22%
    17:00 +33°C° 0 mm 3 mps 753 mmHg 21%
    18:00 +29°C° 0 mm 3 mps 753 mmHg 26%
    19:00 +27°C° 0 mm 2 mps 753 mmHg 30%
    20:00 +25°C° 0 mm 2 mps 753 mmHg 34%
    21:00 +24°C° 0 mm 3 mps 753 mmHg 41%
    22:00 +22°C° 0 mm 3 mps 754 mmHg 47%
    23:00 +21°C° 0 mm 3 mps 754 mmHg 54%

    31 Enero, Viernes

    Tiempo Temperatura Precipitaciones Viento Presión Humedad
    00:00 +20°C° 0 mm 3 mps 754 mmHg 58%
    01:00 +20°C° 0 mm 3 mps 754 mmHg 63%
    02:00 +19°C° 0 mm 2 mps 754 mmHg 67%
    03:00 +19°C° 0 mm 2 mps 754 mmHg 69%
    04:00 +18°C° 0 mm 2 mps 754 mmHg 72%
    05:00 +18°C° 0 mm 2 mps 755 mmHg 74%
    06:00 +20°C° 0 mm 2 mps 755 mmHg 67%
    07:00 +23°C° 0 mm 2 mps 755 mmHg 59%
    08:00 +25°C° 0 mm 2 mps 755 mmHg 52%
    09:00 +28°C° 0 mm 2 mps 755 mmHg 43%
    10:00 +31°C° 0 mm 1 mps 755 mmHg 34%
    11:00 +34°C° 0 mm 1 mps 755 mmHg 25%
    12:00 +35°C° 0 mm 1 mps 754 mmHg 23%
    13:00 +36°C° 0 mm 1 mps 753 mmHg 20%
    14:00 +37°C° 0 mm 1 mps 753 mmHg 18%
    15:00 +37°C° 0 mm 1 mps 752 mmHg 18%
    16:00 +38°C° 0 mm 2 mps 752 mmHg 18%
    17:00 +38°C° 0 mm 2 mps 752 mmHg 18%
    18:00 +35°C° 0 mm 2 mps 752 mmHg 21%
    19:00 +31°C° 0 mm 3 mps 752 mmHg 24%
    20:00 +29°C° 0 mm 4 mps 753 mmHg 27%
    21:00 +28°C° 0 mm 3 mps 753 mmHg 29%
    22:00 +26°C° 0 mm 3 mps 753 mmHg 31%
    23:00 +25°C° 0 mm 3 mps 754 mmHg 33%
    Mostrar más